This demonstration page uses our WeatherBlox Daily Observations layout. Learn more.

Left ArrowRight Arrow

Hourly Observations for March 23, 2019

Temp ( °F °C ) Dew Point ( °F °C ) Humidity (%) Winds ( mph kmh ) Pressure ( in mb ) Visibility ( mi km ) Precip ( " mm )
12:52 am 00:52 Mostly Cloudy 47 8.3 29 -1.7 50 50 E 15 24 30.15 1021 10 16 0.00 0.00
1:52 am 01:52 Cloudy 44 6.7 29 -1.7 55 55 SSE 5 7 30.15 1021 10 16 0.00 0.00
2:52 am 02:52 Cloudy 44 6.7 29 -1.7 55 55 SE 12 19 30.16 1021 10 16 0.00 0.00
3:52 am 03:52 Cloudy 42 5.6 29 -1.7 60 60 SSE 7 11 30.17 1022 10 16 0.00 0.00
4:52 am 04:52 Cloudy 41 5 29 -1.7 62 62 ESE 6 9 30.14 1021 10 16 0.00 0.00
5:52 am 05:52 Cloudy 42 5.6 28 -2.2 58 58 SE 14 22 30.13 1020 10 16 0.00 0.00
6:52 am 06:52 Cloudy 41 5 29 -1.7 62 62 SSE 9 15 30.13 1020 10 16 0.00 0.00
7:52 am 07:52 Cloudy 41 5 29 -1.7 62 62 SE 12 19 30.14 1021 10 16 0.00 0.00
8:52 am 08:52 Cloudy 44 6.7 29 -1.7 55 55 SE 9 15 30.13 1020 10 16 0.00 0.00
9:52 am 09:52 Cloudy 46 7.8 29 -1.7 51 51 SE 8 13 30.14 1021 10 16 0.00 0.00
10:52 am 10:52 Cloudy 49 9.4 30 -1.1 48 48 SSE 9 15 30.14 1021 10 16 0.00 0.00
11:52 am 11:52 Cloudy 49 9.4 33 0.6 55 55 SE 7 11 30.13 1020 10 16 0.00 0.03
12:52 pm 12:52 Cloudy 53 11.7 32 0 45 45 SSE 7 11 30.09 1019 10 16 0.00 0.00
1:52 pm 13:52 Cloudy 58 14.4 33 0.6 39 39 ESE 13 20 30.06 1018 10 16 0.00 0.00
2:52 pm 14:52 Cloudy 56 13.3 34 1.1 44 44 E 7 11 30.04 1017 10 16 0.00 0.00
3:52 pm 15:52 Cloudy 55 12.8 34 1.1 45 45 ESE 9 15 30.03 1017 10 16 0.00 0.00
4:52 pm 16:52 Cloudy 54 12.2 34 1.1 47 47 ESE 14 22 30.02 1017 10 16 0.00 0.00
5:52 pm 17:52 Cloudy 52 11.1 39 3.9 61 61 ESE 17 28 30.02 1017 10 16 0.00 0.00
6:52 pm 18:52 Cloudy 51 10.6 42 5.6 71 71 ESE 15 24 30.01 1016 10 16 0.00 0.00
7:52 pm 19:52 Mostly Cloudy 50 10 41 5 71 71 ESE 20 31 29.99 1016 10 16 0.00 0.00
8:52 pm 20:52 Cloudy 50 10 40 4.4 68 68 ESE 18 30 30.00 1016 10 16 0.00 0.00
9:52 pm 21:52 Cloudy 50 10 40 4.4 68 68 SE 14 22 30.00 1016 10 16 0.00 0.00
10:52 pm 22:52 Cloudy 50 10 41 5 71 71 SE 9 15 29.99 1016 10 16 0.00 0.03
11:08 pm 23:08 Cloudy 50 10 41 5 71 71 ESE 10 17 29.99 1016 10 16 0.00 0.03
11:52 pm 23:52 Cloudy 50 10 41 5 71 71 SE 8 13 29.98 1015 10 16 0.00 0.03

Powered by AerisWeather